Vilalleons





Hora UTC 12:25
Temperatura 11.7 ºC
Humitat 74.0 %
Pressió 1026.4 hPa
Pluja 0.0 mm
Velocitat vent 6.4 km/h
Direcció vent NE

Dades diàries 2021-03-01



Hora UTC (hivern +1h; estiu +2h)
Temperatura (ºC) Humitat (%) Pressió (hPa) Velocitat vent (km/h) Precipitació (mm)
Hora UTC Aire Humitat Pressió Vel. Dir. Vel. Max Dir. Intent. màx 5 min.
00:05 5.1 94.0 1026.6 1.6 NE 1.6 0.0
00:10 5.3 94.0 1026.4 1.6 NE 3.2 0.0
00:15 5.7 94.0 1026.3 0.0 NE 3.2 0.0
00:20 5.9 94.0 1026.3 3.2 NE 3.2 0.0
00:25 6.1 93.0 1026.5 1.6 NE 3.2 0.0
00:30 6.2 93.0 1026.3 0.0 NE 3.2 0.0
00:35 6.1 92.0 1026.4 1.6 NE 1.6 0.0
00:40 6.1 92.0 1026.4 1.6 SE 3.2 0.0
00:45 6.0 92.0 1026.5 0.0 SE 3.2 0.0
00:50 6.1 92.0 1026.7 1.6 SE 1.6 0.0
00:55 6.2 93.0 1026.7 3.2 NNE 4.8 0.0
01:00 6.2 92.0 1026.7 1.6 NE 4.8 0.0
01:05 6.4 92.0 1026.5 3.2 NE 6.4 0.0
01:10 6.6 91.0 1026.6 3.2 NE 6.4 0.0
01:15 6.6 90.0 1026.6 3.2 NNE 6.4 0.0
01:20 6.6 89.0 1026.5 1.6 ENE 6.4 0.0
01:25 6.6 89.0 1026.5 1.6 ENE 4.8 0.0
01:30 6.6 89.0 1026.5 0.0 ENE 3.2 0.0
01:35 6.3 89.0 1026.5 0.0 ENE 0.0 0.0
01:40 6.2 90.0 1026.6 0.0 ENE 0.0 0.0
01:45 6.1 90.0 1026.6 0.0 ENE 0.0 0.0
01:50 6.0 91.0 1026.6 0.0 ENE 0.0 0.0
01:55 5.9 91.0 1026.6 0.0 ENE 0.0 0.0
02:00 5.8 92.0 1026.6 0.0 ENE 0.0 0.0
02:05 5.8 92.0 1026.6 0.0 ENE 0.0 0.0
02:10 5.9 92.0 1026.4 0.0 NE 3.2 0.0
02:15 6.2 92.0 1026.5 0.0 NE 4.8 0.0
02:20 6.4 91.0 1026.4 0.0 NE 4.8 0.0
02:25 6.4 90.0 1026.4 0.0 NE 3.2 0.0
02:30 6.4 91.0 1026.5 0.0 NE 0.0 0.0
02:35 6.4 91.0 1026.5 0.0 NE 0.0 0.0
02:40 6.4 91.0 1026.5 0.0 NE 0.0 0.0
02:45 6.3 91.0 1026.5 0.0 NE 0.0 0.0
02:50 6.3 92.0 1026.4 0.0 NE 0.0 0.0
02:55 6.2 92.0 1026.2 0.0 NE 0.0 0.0
03:00 6.3 92.0 1026.3 0.0 NE 0.0 0.0
03:05 6.2 92.0 1026.3 0.0 NE 0.0 0.0
03:10 6.1 92.0 1026.2 0.0 NE 0.0 0.0
03:15 6.0 92.0 1026.3 0.0 NE 0.0 0.0
03:20 6.1 93.0 1026.3 0.0 NE 0.0 0.0
03:25 6.2 92.0 1026.3 0.0 NE 0.0 0.0
03:30 6.2 92.0 1026.3 0.0 NE 0.0 0.0
03:35 6.1 92.0 1026.2 0.0 NE 0.0 0.0
03:40 6.0 92.0 1026.4 0.0 NE 0.0 0.0
03:45 5.9 92.0 1026.3 0.0 NE 0.0 0.0
03:50 5.9 92.0 1026.4 0.0 NE 0.0 0.0
03:55 5.9 92.0 1026.3 0.0 NE 0.0 0.0
04:00 5.9 92.0 1026.4 0.0 NE 0.0 0.0
04:05 6.0 92.0 1026.5 0.0 NE 0.0 0.0
04:10 6.0 92.0 1026.4 0.0 NE 0.0 0.0
04:15 6.1 92.0 1026.4 0.0 NE 0.0 0.0
04:20 6.1 91.0 1026.4 0.0 NE 0.0 0.0
04:25 6.1 91.0 1026.5 0.0 NE 0.0 0.0
04:30 6.1 91.0 1026.5 0.0 NE 0.0 0.0
04:35 6.1 91.0 1026.3 0.0 NE 0.0 0.0
04:40 5.9 91.0 1026.3 0.0 NE 0.0 0.0
04:45 5.8 91.0 1026.4 0.0 NE 0.0 0.0
04:50 5.6 90.0 1026.2 0.0 NE 0.0 0.0
04:55 5.4 91.0 1026.3 0.0 NE 0.0 0.0
05:00 5.3 91.0 1026.3 0.0 NE 0.0 0.0
05:05 5.1 92.0 1026.3 0.0 NE 0.0 0.0
05:10 5.0 92.0 1026.3 0.0 NE 0.0 0.0
05:15 4.9 93.0 1026.3 0.0 NE 0.0 0.0
05:20 4.9 93.0 1026.2 0.0 NE 0.0 0.0
05:25 4.9 94.0 1026.2 0.0 NE 0.0 0.0
05:30 5.0 93.0 1026.2 0.0 NE 0.0 0.0
05:35 4.9 93.0 1026.1 0.0 E 0.0 0.0
05:40 4.8 92.0 1026.2 0.0 E 0.0 0.0
05:45 4.6 92.0 1026.4 0.0 E 0.0 0.0
05:50 4.4 92.0 1026.3 0.0 E 0.0 0.0
05:55 4.3 92.0 1026.4 0.0 E 0.0 0.0
06:00 4.1 92.0 1026.3 0.0 E 0.0 0.0
06:05 4.0 92.0 1026.3 0.0 E 0.0 0.0
06:10 3.9 93.0 1026.3 0.0 E 0.0 0.0
06:15 3.9 93.0 1026.4 0.0 E 0.0 0.0
06:20 3.8 93.0 1026.4 0.0 E 0.0 0.0
06:25 3.7 93.0 1026.4 0.0 E 0.0 0.0
06:30 3.6 93.0 1026.4 0.0 E 0.0 0.0
06:35 3.6 93.0 1026.4 0.0 E 0.0 0.0
06:40 3.6 94.0 1026.6 0.0 E 0.0 0.0
06:45 3.6 94.0 1026.5 0.0 E 0.0 0.0
06:50 3.6 94.0 1026.6 0.0 E 0.0 0.0
06:55 3.7 95.0 1026.7 0.0 E 0.0 0.0
07:00 3.8 95.0 1026.7 0.0 E 0.0 0.0
07:05 3.9 95.0 1026.8 0.0 E 0.0 0.0
07:10 4.1 95.0 1026.8 0.0 E 0.0 0.0
07:15 4.2 95.0 1026.9 0.0 E 0.0 0.0
07:20 4.3 95.0 1026.9 0.0 E 0.0 0.0
07:25 4.4 95.0 1026.9 1.6 E 1.6 0.0
07:30 4.7 95.0 1026.9 1.6 E 3.2 0.0
07:35 4.7 94.0 1026.9 3.2 NE 3.2 0.0
07:40 4.6 93.0 1027.1 0.0 NE 3.2 0.0
07:45 4.7 94.0 1027.1 0.0 NE 3.2 0.0
07:50 4.7 93.0 1027.2 0.0 NE 3.2 0.0
07:55 4.8 93.0 1027.2 0.0 NE 3.2 0.0
08:00 4.9 93.0 1027.0 0.0 NE 3.2 0.0
08:05 5.1 93.0 1026.9 1.6 NE 1.6 0.0
08:10 5.2 93.0 1027.0 1.6 NE 3.2 0.0
08:15 5.3 93.0 1027.0 0.0 NE 3.2 0.0
08:20 5.5 92.0 1026.8 1.6 NNE 3.2 0.0
08:25 5.7 92.0 1026.9 1.6 NNW 4.8 0.0
08:30 5.8 91.0 1027.0 3.2 WNW 4.8 0.0
08:35 5.9 91.0 1027.1 6.4 NW 6.4 0.0
08:40 5.9 90.0 1027.0 1.6 WSW 6.4 0.0
08:45 6.0 90.0 1027.0 3.2 W 6.4 0.0
08:50 6.1 90.0 1026.9 1.6 WNW 6.4 0.0
08:55 6.2 90.0 1027.1 1.6 WNW 4.8 0.0
09:00 6.3 90.0 1027.2 0.0 WNW 4.8 0.0
09:05 6.6 89.0 1027.0 4.8 NW 4.8 0.0
09:10 6.7 88.0 1027.0 3.2 W 4.8 0.0
09:15 6.7 88.0 1027.0 3.2 NW 4.8 0.0
09:20 6.8 88.0 1027.0 1.6 NW 4.8 0.0
09:25 7.0 88.0 1027.1 1.6 WNW 3.2 0.0
09:30 7.2 89.0 1027.0 1.6 WNW 3.2 0.0
09:35 7.3 87.0 1026.9 3.2 WNW 6.4 0.0
09:40 7.4 88.0 1027.0 0.0 W 6.4 0.0
09:45 7.7 88.0 1027.0 3.2 W 6.4 0.0
09:50 8.1 87.0 1027.0 6.4 NNE 14.5 0.0
09:55 8.7 87.0 1027.1 4.8 NE 14.5 0.0
10:00 9.1 85.0 1026.9 3.2 ENE 14.5 0.0
10:05 9.6 85.0 1027.1 4.8 ENE 14.5 0.0
10:10 9.7 83.0 1027.1 14.5 NNE 16.1 0.0
10:15 9.7 83.0 1027.2 3.2 NE 16.1 0.0
10:20 9.8 83.0 1026.9 6.4 NE 14.5 0.0
10:25 9.7 84.0 1027.1 3.2 ENE 17.7 0.0
10:30 9.7 83.0 1027.0 4.8 NE 14.5 0.0
10:35 9.7 83.0 1027.2 3.2 NE 14.5 0.0
10:40 9.8 83.0 1026.9 6.4 NE 12.9 0.0
10:45 9.7 82.0 1027.0 9.7 E 12.9 0.0
10:50 9.8 84.0 1027.0 4.8 ESE 12.9 0.0
10:55 9.9 83.0 1026.9 3.2 SE 12.9 0.0
11:00 10.1 82.0 1027.0 3.2 ESE 9.7 0.0
11:05 10.5 82.0 1027.0 3.2 E 12.9 0.0
11:10 10.6 79.0 1026.9 3.2 NE 12.9 0.0
11:15 10.7 80.0 1026.8 9.7 E 14.5 0.0
11:20 10.7 78.0 1026.9 1.6 ENE 14.5 0.0
11:25 10.9 80.0 1026.8 3.2 E 14.5 0.0
11:30 11.2 80.0 1026.7 3.2 ESE 9.7 0.0
11:35 11.2 79.0 1026.7 4.8 ESE 9.7 0.0
11:40 11.3 77.0 1026.6 4.8 E 20.9 0.0
11:45 11.3 77.0 1026.6 9.7 ESE 20.9 0.0
11:50 11.3 76.0 1026.6 12.9 SE 17.7 0.0
11:55 11.4 78.0 1026.4 1.6 ESE 17.7 0.0
12:00 11.2 75.0 1026.5 1.6 SE 14.5 0.0
12:05 11.3 78.0 1026.5 9.7 E 20.9 0.0
12:10 11.7 77.0 1026.3 3.2 ENE 19.3 0.0
12:15 11.7 74.0 1026.4 6.4 NE 11.3 0.0
12:20 11.7 77.0 1026.3 11.3 NE 16.1 0.0
12:25 11.7 74.0 1026.4 6.4 NE 19.3 0.0
Màxima 11.8 95.0 1027.2 14.5 NNE 20.9 0.0
Mínima 3.5 74.0 1026.1
Total 0.0